Vertical_Velocity
-1 1 3 3 1 -4 3 2 3 0 -4 -5 0 1 1 1 -1 -2 -2 -5 -4 7 4 4 1 0 -3 -2 1 3 1 -0 -6 -2 2 -4 -1 -1
1 2 -3 -1 1 -1 1 1 0 1 -1 -2 -3 -2 1 -1 -3 -1 -3 -1 -2 4 3 1 -2 2 -4 -6 -3 -1 2 -0 0 -5 -9 1 -2 -1
-2 -3 1 -1 -3 2 -0 -0 -1 -0 -2 0 1 -0 -1 -1 -1 -5 -3 -1 -3 3 3 2 5 -2 1 -0 -4 -1 -4 -3 4 5 -1 -4 -1 3
4 -1 5 -5 -1 2 3 -1 1 2 2 0 2 -1 -3 -1 2 -2 0 3 -4 -4 6 15 -1 3 1 1 -3 -2 -3 2 -3 -6 3 1 -0 -1
8 12 1 -1 -6 4 0 -0 -0 1 -0 -0 1 2 3 -5 -5 -5 -2 -1 -0 5 4 1 0 3 4 0 -2 2 2 -1 -3 1 -0 -3 1 2
5 1 4 -5 -3 2 0 -1 2 -0 6 9 7 4 -1 1 -0 -2 0 0 8 1 -1 34 7 11 3 -1 -1 -0 1 2 2 1 1 -6 -5 0
-3 -4 1 -1 1 2 -1 0 -1 1 -2 -0 -1 -0 -2 -5 -4 -2 3 11 1 -3 9 6 -2 -6 2 -1 -2 -2 1 1 2 2 4 4 3 5
2 12 1 0 3 0 2 3 2 2 0 2 1 -2 4 -2 -1 1 8 -0 -1 10 6 2 3 2 2 0 -3 -0 -1 -1 -1 -1 -0 0 0 1
3 -0 1 1 1 -2 -0 -2 -3 -4 -1 2 5 -0 -5 3 4 5 6 4 4 1 7 8 7 4 2 1 -1 -1 -1 -0 -0 -1 -1 -1 1 2
2 0 -3 1 -2 -3 8 3 2 1 2 0 1 -2 -2 -3 4 11 1 7 9 8 6 0 3 3 1 -0 -1 -1 0 0 -1 -2 -2 -1 -1 -2
1 -7 -3 -2 0 -2 4 -3 -2 -2 -5 0 0 3 -1 1 -1 2 -0 6 6 2 5 3 1 1 2 1 1 -1 0 1 0 -0 -0 -1 -0 -1
-2 -5 -0 0 -4 2 4 2 -4 -3 -1 -4 -4 -3 -1 -3 2 6 7 2 2 9 0 4 3 -1 -1 1 -0 -2 0 -1 -2 -1 -0 -1 -0 0
-2 -1 -0 -0 1 2 -2 -2 -2 -1 -3 -2 -0 -3 1 2 3 5 2 2 2 -1 -3 2 -1 -1 -1 -0 -1 -1 1 -0 -1 -0 -0 -0 0 0
-5 1 1 0 4 -3 -2 -1 -2 4 2 -3 -4 0 1 1 1 4 4 4 6 4 0 3 -3 -1 1 -1 -2 -1 0 -1 -1 -1 -1 -1 -1 -0
0 3 1 1 -2 -5 2 -1 1 3 -2 -4 0 2 1 2 2 3 3 5 1 -3 -1 1 -3 2 1 -1 -1 -0 -0 -1 -0 0 -0 -1 -1 -1
0 1 -3 -1 -2 3 5 -1 -3 -3 1 -1 -0 1 2 3 4 2 -3 0 2 -3 1 -1 -0 -0 0 -0 0 0 1 -2 -0 -0 -1 -1 -0 -0
-1 -4 1 -0 1 -3 -2 2 -1 -3 1 -2 -0 1 1 -1 -2 1 2 -2 -0 -1 -1 0 0 -1 -0 0 0 1 0 -1 0 -1 -1 0 0 -0
-1 -0 2 -1 -6 -1 1 -3 0 -1 -0 -0 -0 1 -2 -5 -2 -3 -4 1 0 0 3 0 0 -0 -1 -1 1 1 -0 -1 -1 -0 -0 -1 -0 -1
-2 2 -1 -4 -1 1 -2 0 1 2 1 0 1 0 -0 2 2 0 -4 1 -1 1 0 1 -0 0 1 0 -0 0 -1 -1 -1 -0 -0 -1 -1 -0
1 -3 -6 -2 -0 3 -2 -2 1 -2 -1 -0 1 -0 -0 2 1 -2 -3 2 1 -0 -0 -0 1 -0 1 -1 -1 0 -1 -1 0 -0 0 0 -1 -1
-1 -4 0 -2 -1 0 -0 -1 1 1 1 0 1 1 1 2 1 0 1 1 0 -1 0 0 -0 -1 0 -1 -1 -1 -1 0 0 -0 -0 -0 -0 -1
-3 1 0 -1 -3 1 -1 -1 0 -0 -1 0 2 1 1 1 1 -0 -2 0 0 1 1 -1 -1 1 1 0 -0 -0 0 1 -0 -0 0 1 -1 1
0 -0 -1 -3 -1 2 -2 -2 -1 -1 -0 1 1 1 1 -0 -0 -0 -0 1 1 -1 -2 -0 0 0 -1 -1 -1 -1 0 0 -1 0 0 -1 -1 0
Height
1515 1515 1515 1515 1514 1514 1512 1512 1512 1510 1509 1509 1509 1509 1510 1510 1508 1507 1507 1508 1509 1510 1510 1509 1507 1506 1505 1505 1504 1505 1505 1506 1506 1506 1506 1506 1504 1501
1508 1508 1509 1509 1510 1509 1508 1507 1506 1506 1506 1505 1505 1506 1505 1504 1505 1504 1504 1505 1507 1508 1507 1507 1506 1504 1503 1504 1504 1504 1504 1505 1505 1504 1507 1503 1501 1502
1502 1502 1502 1503 1503 1503 1502 1502 1501 1501 1501 1501 1500 1500 1501 1502 1500 1501 1501 1502 1504 1505 1505 1505 1502 1502 1502 1502 1503 1502 1502 1503 1502 1502 1502 1502 1501 1499
1493 1493 1494 1496 1497 1497 1496 1495 1496 1496 1496 1496 1496 1495 1496 1497 1497 1497 1498 1498 1500 1501 1502 1501 1498 1499 1500 1500 1501 1502 1502 1502 1501 1501 1501 1499 1498 1499
1490 1488 1488 1489 1490 1491 1491 1492 1492 1493 1493 1492 1491 1492 1493 1493 1494 1493 1495 1495 1495 1496 1497 1497 1494 1497 1498 1499 1500 1501 1501 1501 1501 1501 1499 1501 1499 1499
1482 1483 1482 1482 1485 1485 1485 1485 1486 1486 1486 1486 1486 1486 1488 1488 1489 1488 1489 1490 1490 1491 1492 1491 1491 1495 1496 1497 1499 1500 1500 1500 1499 1499 1499 1499 1499 1498
1476 1475 1475 1476 1478 1478 1479 1480 1481 1481 1481 1480 1481 1483 1481 1481 1483 1484 1485 1484 1486 1488 1490 1488 1490 1493 1495 1496 1498 1499 1499 1499 1499 1499 1499 1499 1499 1500
1468 1469 1469 1472 1473 1472 1473 1474 1474 1474 1475 1475 1475 1477 1477 1476 1478 1478 1481 1481 1483 1485 1486 1488 1490 1491 1493 1495 1497 1497 1498 1498 1498 1498 1497 1497 1497 1496
1461 1463 1465 1468 1468 1468 1468 1468 1468 1469 1470 1470 1470 1470 1472 1473 1473 1473 1476 1477 1479 1481 1483 1485 1488 1490 1492 1493 1495 1496 1496 1496 1496 1496 1496 1496 1496 1495
1454 1457 1461 1462 1462 1461 1463 1462 1463 1463 1464 1465 1466 1467 1468 1468 1470 1470 1472 1473 1475 1478 1481 1484 1487 1489 1491 1492 1493 1494 1495 1495 1495 1495 1496 1495 1495 1494
1447 1452 1455 1456 1457 1458 1455 1456 1459 1458 1460 1461 1461 1462 1462 1463 1465 1465 1466 1469 1472 1475 1478 1481 1484 1487 1490 1491 1492 1492 1493 1494 1494 1494 1494 1494 1494 1494
1443 1447 1450 1451 1452 1453 1452 1453 1454 1455 1455 1456 1456 1456 1457 1457 1459 1460 1462 1465 1468 1472 1476 1480 1482 1485 1489 1490 1491 1491 1492 1492 1493 1493 1493 1493 1494 1494
1440 1443 1446 1447 1448 1448 1449 1450 1451 1451 1451 1452 1453 1454 1455 1455 1456 1457 1459 1463 1466 1469 1472 1476 1479 1482 1485 1486 1488 1489 1490 1491 1492 1492 1493 1493 1493 1494
1437 1440 1443 1443 1443 1445 1447 1448 1449 1448 1448 1450 1452 1453 1453 1453 1454 1455 1458 1461 1464 1468 1471 1474 1478 1481 1483 1485 1486 1488 1489 1490 1490 1491 1492 1492 1493 1494
1433 1437 1438 1439 1440 1442 1444 1445 1446 1446 1447 1449 1451 1452 1452 1453 1453 1455 1458 1461 1464 1468 1471 1474 1478 1480 1482 1484 1485 1485 1486 1488 1489 1490 1491 1492 1493 1494
1429 1432 1435 1436 1438 1441 1442 1443 1444 1446 1447 1449 1450 1451 1452 1454 1455 1456 1459 1463 1466 1469 1471 1474 1477 1479 1481 1482 1483 1484 1485 1486 1487 1488 1490 1491 1492 1493
1427 1430 1432 1434 1435 1437 1440 1442 1443 1445 1447 1448 1450 1452 1453 1454 1456 1459 1462 1464 1467 1470 1472 1474 1476 1478 1479 1481 1482 1482 1483 1485 1486 1488 1489 1491 1492 1493
1424 1427 1428 1430 1434 1436 1438 1441 1443 1445 1447 1449 1451 1452 1454 1455 1457 1459 1462 1466 1468 1470 1472 1473 1475 1477 1478 1480 1480 1481 1482 1484 1486 1487 1489 1490 1491 1492
1422 1424 1426 1428 1431 1434 1437 1440 1442 1444 1447 1449 1452 1454 1455 1457 1458 1460 1462 1466 1468 1470 1472 1473 1475 1476 1477 1478 1479 1480 1482 1483 1485 1486 1488 1488 1489 1490
1421 1422 1425 1427 1430 1433 1435 1439 1441 1443 1446 1449 1451 1453 1455 1457 1458 1460 1463 1466 1468 1470 1471 1473 1474 1475 1476 1477 1478 1479 1481 1483 1484 1485 1486 1487 1488 1488
1419 1421 1423 1425 1429 1432 1435 1438 1441 1443 1446 1448 1451 1453 1454 1456 1458 1460 1463 1465 1467 1470 1471 1472 1473 1474 1475 1476 1477 1478 1480 1482 1483 1484 1485 1486 1487 1487
1418 1421 1422 1424 1428 1431 1434 1438 1440 1443 1445 1448 1450 1452 1453 1455 1457 1459 1462 1465 1468 1470 1471 1472 1473 1474 1475 1476 1477 1478 1480 1481 1482 1483 1484 1485 1486 1486
1418 1420 1422 1424 1427 1430 1433 1437 1440 1442 1445 1447 1449 1451 1453 1455 1457 1459 1462 1464 1467 1469 1470 1471 1472 1473 1474 1475 1477 1478 1479 1480 1481 1482 1483 1484 1484 1484